Time,TemperatureF,DewpointF,PressureIn,WindDirection,WindDirectionDegrees,WindSpeedMPH,WindSpeedGustMPH,Humidity,HourlyPrecipIn,Conditions,Clouds,dailyrainin,SoftwareType,DateUTC
2013-05-26 00:02:00,50.0,48.0,30.26,East,88,4.0,11.0,94,0.01,,,0.35,,2013-05-26 05:02:00,
2013-05-26 00:12:00,50.0,48.0,30.26,East,88,4.0,11.0,94,0.01,,,0.35,,2013-05-26 05:12:00,
2013-05-26 00:22:00,49.0,47.0,30.26,ESE,109,3.0,10.0,94,0.01,,,0.35,,2013-05-26 05:22:00,
2013-05-26 00:32:00,49.0,47.0,30.26,ESE,116,3.0,9.0,94,0.01,,,0.35,,2013-05-26 05:32:00,
2013-05-26 00:42:00,49.0,47.0,30.26,ESE,116,3.0,9.0,94,0.01,,,0.35,,2013-05-26 05:42:00,
2013-05-26 00:52:00,49.0,47.0,30.25,ESE,109,4.0,9.0,94,0.01,,,0.35,,2013-05-26 05:52:00,
2013-05-26 01:01:00,49.0,47.0,30.25,SE,138,4.0,9.0,94,0.00,,,0.35,,2013-05-26 06:01:00,
2013-05-26 01:12:00,49.0,47.0,30.25,SE,138,4.0,9.0,94,0.00,,,0.35,,2013-05-26 06:12:00,
2013-05-26 01:22:00,50.0,48.0,30.24,SE,140,4.0,9.0,94,0.00,,,0.35,,2013-05-26 06:22:00,
2013-05-26 01:32:00,50.0,48.0,30.24,South,174,4.0,9.0,94,0.00,,,0.35,,2013-05-26 06:32:00,
2013-05-26 01:42:00,50.0,48.0,30.24,South,174,4.0,9.0,94,0.00,,,0.35,,2013-05-26 06:42:00,
2013-05-26 01:52:00,50.0,48.0,30.24,SE,138,4.0,9.0,93,0.00,,,0.35,,2013-05-26 06:52:00,
2013-05-26 02:01:00,50.0,48.0,30.23,ENE,73,2.0,9.0,93,0.00,,,0.35,,2013-05-26 07:01:00,
2013-05-26 02:11:00,50.0,48.0,30.23,ENE,73,2.0,9.0,93,0.00,,,0.35,,2013-05-26 07:11:00,
2013-05-26 02:21:00,50.0,48.0,30.23,SE,124,3.0,8.0,93,0.00,,,0.35,,2013-05-26 07:21:00,
2013-05-26 02:31:00,50.0,48.0,30.22,ESE,119,4.0,8.0,93,0.00,,,0.35,,2013-05-26 07:31:00,
2013-05-26 02:42:00,50.0,48.0,30.22,ESE,119,4.0,8.0,93,0.00,,,0.35,,2013-05-26 07:42:00,
2013-05-26 02:52:00,51.0,49.0,30.22,SE,133,4.0,7.0,93,0.00,,,0.35,,2013-05-26 07:52:00,
2013-05-26 03:01:00,51.0,49.0,30.22,ESE,121,3.0,7.0,93,0.00,,,0.35,,2013-05-26 08:01:00,
2013-05-26 03:12:00,51.0,49.0,30.22,ESE,121,3.0,7.0,93,0.00,,,0.35,,2013-05-26 08:12:00,
2013-05-26 03:21:00,51.0,49.0,30.22,SE,127,2.0,7.0,94,0.00,,,0.35,,2013-05-26 08:21:00,
2013-05-26 03:32:00,51.0,49.0,30.22,SE,132,2.0,7.0,94,0.00,,,0.35,,2013-05-26 08:32:00,
2013-05-26 03:42:00,51.0,49.0,30.22,SE,132,2.0,7.0,94,0.00,,,0.35,,2013-05-26 08:42:00,
2013-05-26 03:53:00,51.0,49.0,30.22,East,101,2.0,9.0,93,0.00,,,0.35,,2013-05-26 08:53:00,
2013-05-26 04:01:00,51.0,49.0,30.22,ESE,117,2.0,7.0,93,0.00,,,0.35,,2013-05-26 09:01:00,
2013-05-26 04:11:00,51.0,49.0,30.22,ESE,117,2.0,7.0,93,0.00,,,0.35,,2013-05-26 09:11:00,
2013-05-26 04:21:00,51.0,49.0,30.22,East,99,2.0,8.0,93,0.00,,,0.35,,2013-05-26 09:21:00,
2013-05-26 04:33:00,51.0,49.0,30.22,ESE,102,2.0,8.0,93,0.00,,,0.35,,2013-05-26 09:33:00,
2013-05-26 04:42:00,51.0,49.0,30.22,ESE,102,2.0,8.0,93,0.00,,,0.35,,2013-05-26 09:42:00,
2013-05-26 04:53:00,51.0,49.0,30.22,ESE,111,2.0,7.0,93,0.00,,,0.35,,2013-05-26 09:53:00,
2013-05-26 05:02:00,51.0,49.0,30.22,SE,131,3.0,9.0,93,0.00,,,0.35,,2013-05-26 10:02:00,
2013-05-26 05:12:00,51.0,49.0,30.22,SE,131,3.0,9.0,93,0.00,,,0.35,,2013-05-26 10:12:00,
2013-05-26 05:23:00,51.0,49.0,30.22,SE,126,3.0,9.0,93,0.00,,,0.35,,2013-05-26 10:23:00,
2013-05-26 05:32:00,51.0,49.0,30.22,SSE,152,1.0,8.0,93,0.00,,,0.35,,2013-05-26 10:32:00,
2013-05-26 05:42:00,51.0,49.0,30.22,SSE,152,1.0,8.0,93,0.00,,,0.35,,2013-05-26 10:42:00,
2013-05-26 05:52:00,51.0,49.0,30.23,East,99,1.0,9.0,93,0.00,,,0.35,,2013-05-26 10:52:00,
2013-05-26 06:03:00,51.0,49.0,30.23,SE,134,3.0,7.0,93,0.00,,,0.35,,2013-05-26 11:03:00,
2013-05-26 06:11:00,51.0,49.0,30.23,SE,134,3.0,7.0,93,0.00,,,0.35,,2013-05-26 11:11:00,
2013-05-26 06:22:00,51.0,49.0,30.23,ESE,122,2.0,7.0,92,0.00,,,0.35,,2013-05-26 11:22:00,
2013-05-26 06:32:00,51.0,49.0,30.23,SE,124,5.0,11.0,92,0.00,,,0.35,,2013-05-26 11:32:00,
2013-05-26 06:42:00,51.0,49.0,30.23,SE,124,5.0,11.0,92,0.00,,,0.35,,2013-05-26 11:42:00,
2013-05-26 06:52:00,51.0,48.0,30.24,ESE,103,3.0,10.0,90,0.00,,,0.35,,2013-05-26 11:52:00,
2013-05-26 07:02:00,51.0,48.0,30.24,SE,126,3.0,12.0,89,0.00,,,0.35,,2013-05-26 12:02:00,
2013-05-26 07:12:00,51.0,48.0,30.24,SE,126,3.0,12.0,89,0.00,,,0.35,,2013-05-26 12:12:00,
2013-05-26 07:21:00,51.0,48.0,30.24,SSE,147,4.0,10.0,89,0.00,,,0.35,,2013-05-26 12:21:00,
2013-05-26 07:32:00,52.0,48.0,30.25,South,181,5.0,16.0,87,0.00,,,0.35,,2013-05-26 12:32:00,
2013-05-26 07:42:00,52.0,48.0,30.25,South,181,5.0,16.0,87,0.00,,,0.35,,2013-05-26 12:42:00,
2013-05-26 07:52:00,51.0,48.0,30.25,SE,128,4.0,12.0,89,0.00,,,0.35,,2013-05-26 12:52:00,
2013-05-26 08:02:00,52.0,49.0,30.24,ESE,113,6.0,12.0,89,0.00,,,0.35,,2013-05-26 13:02:00,
2013-05-26 08:11:00,52.0,49.0,30.24,ESE,113,6.0,12.0,89,0.00,,,0.35,,2013-05-26 13:11:00,
2013-05-26 08:21:00,52.0,49.0,30.24,ESE,109,5.0,12.0,89,0.00,,,0.35,,2013-05-26 13:21:00,
2013-05-26 08:32:00,53.0,50.0,30.23,ESE,114,5.0,13.0,89,0.00,,,0.35,,2013-05-26 13:32:00,
2013-05-26 08:42:00,53.0,50.0,30.23,ESE,114,5.0,13.0,89,0.00,,,0.35,,2013-05-26 13:42:00,
2013-05-26 08:52:00,53.0,50.0,30.24,SE,144,7.0,12.0,88,0.00,,,0.35,,2013-05-26 13:52:00,
2013-05-26 09:02:00,53.0,50.0,30.24,ESE,116,7.0,16.0,88,0.00,,,0.35,,2013-05-26 14:02:00,
2013-05-26 09:11:00,53.0,50.0,30.24,ESE,116,7.0,16.0,88,0.00,,,0.35,,2013-05-26 14:11:00,
2013-05-26 09:21:00,54.0,51.0,30.25,East,90,4.0,9.0,88,0.00,,,0.35,,2013-05-26 14:21:00,
2013-05-26 09:32:00,54.0,51.0,30.24,SE,146,5.0,10.0,88,0.00,,,0.35,,2013-05-26 14:32:00,
2013-05-26 09:42:00,54.0,51.0,30.24,SE,146,5.0,10.0,88,0.00,,,0.35,,2013-05-26 14:42:00,
2013-05-26 09:52:00,54.0,51.0,30.24,South,183,6.0,15.0,88,0.00,,,0.35,,2013-05-26 14:52:00,
2013-05-26 10:01:00,53.0,50.0,30.26,ESE,104,3.0,12.0,91,0.01,,,0.36,,2013-05-26 15:01:00,
2013-05-26 10:12:00,53.0,50.0,30.26,ESE,104,3.0,12.0,91,0.01,,,0.36,,2013-05-26 15:12:00,
2013-05-26 10:22:00,53.0,51.0,30.28,ESE,119,3.0,8.0,92,0.03,,,0.38,,2013-05-26 15:22:00,
2013-05-26 10:33:00,53.0,51.0,30.23,ESE,104,4.0,8.0,92,0.03,,,0.38,,2013-05-26 15:33:00,
2013-05-26 10:43:00,53.0,51.0,30.23,ESE,104,4.0,8.0,92,0.03,,,0.38,,2013-05-26 15:43:00,
2013-05-26 10:53:00,53.0,51.0,30.24,SSE,155,3.0,8.0,93,0.07,,,0.42,,2013-05-26 15:53:00,
2013-05-26 11:03:00,53.0,51.0,30.24,SSE,159,4.0,9.0,94,0.08,,,0.44,,2013-05-26 16:03:00,
2013-05-26 11:12:00,53.0,51.0,30.24,SSE,159,4.0,9.0,94,0.08,,,0.44,,2013-05-26 16:12:00,
2013-05-26 11:23:00,53.0,52.0,30.23,ESE,117,5.0,11.0,95,0.06,,,0.44,,2013-05-26 16:23:00,
2013-05-26 11:33:00,54.0,52.0,30.24,SE,144,3.0,12.0,94,0.06,,,0.44,,2013-05-26 16:33:00,
2013-05-26 11:42:00,54.0,52.0,30.24,SE,144,3.0,12.0,94,0.06,,,0.44,,2013-05-26 16:42:00,
2013-05-26 11:53:00,54.0,52.0,30.26,South,184,2.0,7.0,94,0.03,,,0.45,,2013-05-26 16:53:00,
2013-05-26 12:02:00,54.0,52.0,30.25,SSE,150,5.0,13.0,94,0.02,,,0.46,,2013-05-26 17:02:00,
2013-05-26 12:11:00,54.0,52.0,30.25,SSE,150,5.0,13.0,94,0.02,,,0.46,,2013-05-26 17:11:00,
2013-05-26 12:22:00,54.0,53.0,30.23,SE,142,4.0,12.0,95,0.04,,,0.48,,2013-05-26 17:22:00,
2013-05-26 12:32:00,54.0,53.0,30.22,SSE,165,6.0,10.0,95,0.06,,,0.50,,2013-05-26 17:32:00,
2013-05-26 12:42:00,54.0,53.0,30.22,SSE,165,6.0,10.0,95,0.06,,,0.50,,2013-05-26 17:42:00,
2013-05-26 12:52:00,54.0,53.0,30.22,SE,131,6.0,12.0,96,0.06,,,0.51,,2013-05-26 17:52:00,
2013-05-26 13:01:00,55.0,54.0,30.21,SE,146,6.0,11.0,95,0.05,,,0.51,,2013-05-26 18:01:00,
2013-05-26 13:12:00,55.0,54.0,30.21,SE,146,6.0,11.0,95,0.05,,,0.51,,2013-05-26 18:12:00,
2013-05-26 13:21:00,56.0,55.0,30.19,ESE,112,9.0,18.0,95,0.03,,,0.51,,2013-05-26 18:21:00,
2013-05-26 13:32:00,57.0,55.0,30.19,ESE,105,8.0,16.0,94,0.01,,,0.41,,2013-05-26 18:32:00,
2013-05-26 13:42:00,57.0,55.0,30.19,ESE,105,8.0,16.0,94,0.01,,,0.41,,2013-05-26 18:42:00,
2013-05-26 13:52:00,58.0,55.0,30.19,SE,142,8.0,20.0,91,0.00,,,0.41,,2013-05-26 18:52:00,
2013-05-26 14:01:00,59.0,56.0,30.19,SSW,204,7.0,16.0,90,0.00,,,0.41,,2013-05-26 19:01:00,
2013-05-26 14:11:00,59.0,56.0,30.19,SSW,204,7.0,16.0,90,0.00,,,0.41,,2013-05-26 19:11:00,
2013-05-26 14:22:00,60.0,56.0,30.18,SSE,156,8.0,17.0,88,0.00,,,0.38,,2013-05-26 19:22:00,
2013-05-26 14:32:00,59.0,55.0,30.19,South,180,10.0,17.0,88,0.00,,,0.38,,2013-05-26 19:32:00,
2013-05-26 14:42:00,59.0,55.0,30.19,South,180,10.0,17.0,88,0.00,,,0.38,,2013-05-26 19:42:00,
2013-05-26 14:52:00,61.0,57.0,30.17,SE,125,7.0,17.0,88,0.00,,,0.38,,2013-05-26 19:52:00,
2013-05-26 15:02:00,61.0,57.0,30.17,SE,129,8.0,16.0,87,0.00,,,0.38,,2013-05-26 20:02:00,
2013-05-26 15:11:00,61.0,57.0,30.17,SE,129,8.0,16.0,87,0.00,,,0.38,,2013-05-26 20:11:00,
2013-05-26 15:22:00,61.0,57.0,30.17,SE,140,5.0,16.0,88,0.00,,,0.36,,2013-05-26 20:22:00,
2013-05-26 15:32:00,61.0,57.0,30.17,ESE,111,7.0,15.0,88,0.00,,,0.36,,2013-05-26 20:32:00,
2013-05-26 15:42:00,61.0,57.0,30.17,ESE,111,7.0,15.0,88,0.00,,,0.36,,2013-05-26 20:42:00,
2013-05-26 15:52:00,61.0,57.0,30.17,SE,127,6.0,12.0,88,0.00,,,0.36,,2013-05-26 20:52:00,
2013-05-26 16:01:00,62.0,58.0,30.16,SE,138,6.0,12.0,88,0.00,,,0.36,,2013-05-26 21:01:00,
2013-05-26 16:11:00,62.0,58.0,30.16,SE,138,6.0,12.0,88,0.00,,,0.36,,2013-05-26 21:11:00,
2013-05-26 16:22:00,62.0,58.0,30.16,SSE,147,7.0,15.0,87,0.00,,,0.36,,2013-05-26 21:22:00,
2013-05-26 16:33:00,63.0,59.0,30.15,East,90,6.0,15.0,86,0.00,,,0.36,,2013-05-26 21:33:00,
2013-05-26 16:43:00,63.0,59.0,30.15,East,90,6.0,15.0,86,0.00,,,0.36,,2013-05-26 21:43:00,
2013-05-26 16:53:00,63.0,58.0,30.14,SE,129,8.0,15.0,85,0.00,,,0.36,,2013-05-26 21:53:00,
2013-05-26 17:02:00,63.0,59.0,30.13,SE,124,8.0,16.0,87,0.00,,,0.36,,2013-05-26 22:02:00,
2013-05-26 17:12:00,63.0,59.0,30.13,SE,124,8.0,16.0,87,0.00,,,0.36,,2013-05-26 22:12:00,
2013-05-26 17:23:00,63.0,59.0,30.12,SE,142,6.0,16.0,86,0.00,,,0.35,,2013-05-26 22:23:00,
2013-05-26 17:33:00,63.0,59.0,30.12,SE,145,6.0,14.0,87,0.00,,,0.35,,2013-05-26 22:33:00,
2013-05-26 17:42:00,63.0,58.0,30.11,SSW,202,7.0,15.0,85,0.00,,,0.35,,2013-05-26 22:42:00,
2013-05-26 17:53:00,63.0,58.0,30.11,SSW,202,7.0,15.0,85,0.00,,,0.35,,2013-05-26 22:53:00,
2013-05-26 18:02:00,63.0,59.0,30.11,ESE,109,7.0,15.0,86,0.00,,,0.35,,2013-05-26 23:02:00,
2013-05-26 18:12:00,63.0,59.0,30.11,ESE,109,7.0,15.0,86,0.00,,,0.35,,2013-05-26 23:12:00,
2013-05-26 18:22:00,62.0,58.0,30.10,SE,140,6.0,14.0,88,0.00,,,0.27,,2013-05-26 23:22:00,
2013-05-26 18:32:00,62.0,58.0,30.10,SE,143,7.0,14.0,88,0.00,,,0.27,,2013-05-26 23:32:00,
2013-05-26 18:43:00,62.0,58.0,30.10,SE,143,7.0,14.0,88,0.00,,,0.27,,2013-05-26 23:43:00,
2013-05-26 18:52:00,62.0,59.0,30.09,SE,135,6.0,15.0,89,0.00,,,0.27,,2013-05-26 23:52:00,
2013-05-26 19:02:00,62.0,58.0,30.08,ESE,102,8.0,15.0,87,0.00,,,0.27,,2013-05-27 00:02:00,
2013-05-26 19:11:00,62.0,58.0,30.08,ESE,102,8.0,15.0,87,0.00,,,0.27,,2013-05-27 00:11:00,
2013-05-26 19:21:00,62.0,58.0,30.08,ESE,115,7.0,13.0,87,0.00,,,0.19,,2013-05-27 00:21:00,
2013-05-26 19:32:00,62.0,58.0,30.07,SE,140,6.0,14.0,88,0.00,,,0.19,,2013-05-27 00:32:00,
2013-05-26 19:42:00,62.0,58.0,30.07,SE,140,6.0,14.0,88,0.00,,,0.19,,2013-05-27 00:42:00,
2013-05-26 19:52:00,62.0,58.0,30.09,East,94,6.0,13.0,88,0.00,,,0.19,,2013-05-27 00:52:00,
2013-05-26 20:01:00,61.0,57.0,30.09,ENE,62,5.0,11.0,88,0.00,,,0.19,,2013-05-27 01:01:00,
2013-05-26 20:11:00,61.0,57.0,30.09,ENE,62,5.0,11.0,88,0.00,,,0.19,,2013-05-27 01:11:00,
2013-05-26 20:22:00,61.0,58.0,30.09,ENE,74,4.0,11.0,89,0.00,,,0.19,,2013-05-27 01:22:00,
2013-05-26 20:31:00,61.0,58.0,30.09,ESE,109,3.0,10.0,89,0.00,,,0.19,,2013-05-27 01:31:00,
2013-05-26 20:42:00,61.0,58.0,30.08,East,90,7.0,14.0,89,0.00,,,0.19,,2013-05-27 01:42:00,
2013-05-26 20:52:00,61.0,58.0,30.08,East,90,7.0,14.0,89,0.00,,,0.19,,2013-05-27 01:52:00,
2013-05-26 21:01:00,61.0,58.0,30.07,East,83,5.0,14.0,89,0.00,,,0.19,,2013-05-27 02:01:00,
2013-05-26 21:11:00,61.0,58.0,30.07,East,83,5.0,14.0,89,0.00,,,0.19,,2013-05-27 02:11:00,
2013-05-26 21:22:00,61.0,58.0,30.07,SSE,151,8.0,14.0,89,0.00,,,0.19,,2013-05-27 02:22:00,
2013-05-26 21:32:00,60.0,57.0,30.06,ESE,107,6.0,13.0,89,0.00,,,0.19,,2013-05-27 02:32:00,
2013-05-26 21:42:00,60.0,57.0,30.06,ESE,107,6.0,13.0,89,0.00,,,0.19,,2013-05-27 02:42:00,
2013-05-26 21:52:00,60.0,56.0,30.06,ESE,119,6.0,17.0,88,0.00,,,0.19,,2013-05-27 02:52:00,
2013-05-26 22:02:00,60.0,56.0,30.06,SE,127,7.0,17.0,88,0.00,,,0.19,,2013-05-27 03:02:00,
2013-05-26 22:11:00,60.0,56.0,30.06,SE,127,7.0,17.0,88,0.00,,,0.19,,2013-05-27 03:11:00,
2013-05-26 22:21:00,60.0,56.0,30.05,ESE,103,7.0,18.0,87,0.00,,,0.17,,2013-05-27 03:21:00,
2013-05-26 22:33:00,60.0,56.0,30.04,ESE,121,9.0,18.0,87,0.00,,,0.17,,2013-05-27 03:33:00,
2013-05-26 22:43:00,60.0,56.0,30.04,ESE,121,9.0,18.0,87,0.00,,,0.17,,2013-05-27 03:43:00,
2013-05-26 22:53:00,60.0,56.0,30.03,ESE,116,8.0,18.0,87,0.00,,,0.17,,2013-05-27 03:53:00,
2013-05-26 23:02:00,60.0,56.0,30.03,SE,144,9.0,20.0,87,0.00,,,0.17,,2013-05-27 04:02:00,
2013-05-26 23:12:00,60.0,56.0,30.03,SE,144,9.0,20.0,87,0.00,,,0.17,,2013-05-27 04:12:00,
2013-05-26 23:23:00,59.0,56.0,30.03,ESE,111,8.0,17.0,91,0.05,,,0.22,,2013-05-27 04:23:00,
2013-05-26 23:33:00,59.0,56.0,30.02,ESE,122,8.0,17.0,91,0.05,,,0.22,,2013-05-27 04:33:00,
2013-05-26 23:43:00,59.0,56.0,30.02,SSE,155,6.0,17.0,91,0.05,,,0.22,,2013-05-27 04:43:00,
2013-05-26 23:52:00,59.0,56.0,30.02,SSE,155,6.0,17.0,91,0.05,,,0.22,,2013-05-27 04:52:00,